Torna al catalogo

COSMOS 1275 DEB

AttivoPO
NORAD 39939·DEBRIS·🇷🇺 Russia

Lanciato Jun 4, 1981 da Plesetsk Cosmodrome

Loading…

Prossimi Passaggi (prossime 24 ore)

TLE

In scadenzaSource: Space-Track

Epoca: Sep 8, 2026, 02:46 UTC

1 39939U 81053MZ  26251.11562150  .00000434  00000-0  40587-3 0  9995
2 39939  82.8191  29.3027 0069098 283.4134  75.9328 13.78724220616175

Traccia COSMOS 1275 DEB in tempo reale con AllMySat

Download on the App Store